Location: Saluda
(35.2377°N, 82.3468°W)
Time: 20:39:12
(UTC+00:00)

Vanguard 3 - Pass Details

Date: 05 October 2022
Orbit: 509 x 3255 km, 33.3° (Epoch: 01 December)

Event Time Altitude Azimuth Distance (km) Brightness Sun altitude
Rises 13:12:25 0° 243° (WSW) 2,595 9.4 20.0°
Reaches altitude 10° 13:14:29 10° 237° (WSW) 1,743 8.6 20.4°
Maximum altitude 13:18:05 46° 162° (SSE) 792 7.9 21.0°
Drops below altitude 10° 13:22:55 10° 89° (E) 2,324 10.9 21.9°
Sets 13:26:03 0° 84° (E) 3,602 11.5 22.5°
